EDT,Max TemperatureF,Mean TemperatureF,Min TemperatureF,Max Dew PointF,MeanDew PointF,Min DewpointF,Max Humidity, Mean Humidity, Min Humidity, Max Sea Level PressureIn, Mean Sea Level PressureIn, Min Sea Level PressureIn, Max VisibilityMiles, Mean VisibilityMiles, Min VisibilityMiles, Max Wind SpeedMPH, Mean Wind SpeedMPH, Max Gust SpeedMPH,PrecipitationIn, CloudCover, Events, WindDirDegrees
2012-9-1,87,79,71,77,72,68,100,83,52,30.17,30.12,30.07,10,10,5,10,1,17,0.00,1,,25
2012-9-2,89,79,69,77,73,70,100,85,55,30.10,30.04,29.96,10,9,1,28,2,39,1.38,3,Rain-Thunderstorm,147
2012-9-3,82,76,69,77,72,70,100,93,74,30.09,30.04,30.00,10,9,3,20,2,24,0.00,6,Rain-Thunderstorm,123
2012-9-4,84,78,73,73,71,68,100,78,58,30.04,29.98,29.95,10,10,10,10,6,,0.00,4,,205
2012-9-5,82,76,69,73,72,70,100,89,66,29.97,29.94,29.88,10,9,5,15,4,21,0.00,4,Thunderstorm,220
2012-9-6,84,76,68,73,72,68,100,92,70,29.99,29.94,29.91,10,9,0,12,4,17,0.03,5,Fog-Rain-Thunderstorm,237
2012-9-7,84,76,68,72,69,66,100,86,55,30.02,29.97,29.90,10,7,0,6,1,,0.00,5,Fog,72
2012-9-8,86,75,64,73,68,63,100,90,62,29.90,29.82,29.72,10,7,0,16,3,17,0.02,6,Fog-Rain-Thunderstorm,214
2012-9-9,77,66,55,64,57,50,100,77,39,30.02,29.93,29.87,10,10,7,9,2,,0.01,4,Rain,351
2012-9-10,77,64,50,59,53,48,100,78,38,30.21,30.11,30.02,10,9,2,9,1,,0.00,1,,12
2012-9-11,77,62,48,59,52,46,100,77,41,30.35,30.29,30.21,10,9,1,9,1,,0.00,0,,71
2012-9-12,77,62,48,59,53,48,100,78,39,30.41,30.35,30.31,10,8,1,8,1,,0.00,0,,71
2012-9-13,77,62,46,61,54,46,100,80,36,30.41,30.34,30.28,10,9,3,9,1,,0.00,0,,52
2012-9-14,78,66,55,66,61,55,100,87,57,30.31,30.24,30.18,10,9,0,5,0,,0.00,2,Fog,55
2012-9-15,75,65,55,63,59,55,100,85,57,30.23,30.19,30.15,10,8,1,14,2,17,0.00,1,,46
2012-9-16,62,58,55,61,58,55,100,96,82,30.22,30.17,30.12,10,9,1,5,1,,0.88,6,Rain,83
2012-9-17,73,64,55,70,65,55,100,96,83,30.15,30.08,29.97,10,8,0,7,1,,0.03,7,Fog-Rain,132
2012-9-18,73,68,64,73,69,64,100,99,94,29.97,29.82,29.74,10,9,1,17,8,37,1.96,7,Rain-Thunderstorm,192
2012-9-19,69,61,51,66,58,52,100,84,56,30.18,30.06,29.87,10,9,1,12,3,,0.01,5,,34
2012-9-20,73,60,46,61,54,46,100,84,50,30.21,30.15,30.08,10,8,1,6,1,,0.00,1,,126
2012-9-21,78,64,51,63,59,52,100,84,54,30.13,30.07,30.02,10,8,0,7,1,,0.00,1,Fog,213
2012-9-22,82,70,59,66,63,59,100,80,48,30.02,29.97,29.90,10,10,2,14,5,20,0.38,2,Rain,217
2012-9-23,71,58,46,64,49,36,100,72,28,30.17,30.11,30.00,10,10,7,10,1,,0.01,3,,348
2012-9-24,68,55,42,52,45,41,100,76,37,30.27,30.22,30.17,10,10,2,8,1,,0.00,1,,32
2012-9-25,73,57,41,61,51,41,100,81,47,30.27,30.23,30.16,10,9,2,13,2,16,0.00,0,,214
2012-9-26,80,66,51,64,59,52,100,84,54,30.24,30.21,30.17,10,9,2,8,2,,0.00,0,,215
2012-9-27,80,66,51,64,59,52,100,82,45,30.22,30.17,30.12,10,8,0,6,1,,0.00,0,Fog,213
2012-9-28,80,66,53,68,61,54,100,89,54,30.13,30.08,30.03,10,8,1,6,1,9,0.00,2,Rain,244
2012-9-29,64,60,55,64,61,55,100,100,100,30.04,29.99,29.93,10,6,1,10,2,,0.35,8,Rain,54
2012-9-30,68,60,53,61,56,54,100,89,60,29.96,29.93,29.88,10,7,0,5,1,,0.00,4,Fog,135